Regional Weather Roundup
Issued by NWS

Home | Current Version | Previous Version | Text Only | Print | Product List | Glossary Off
Versions: 1 2 3 4 5 6 7 8 9 10 11 12 13 14 15 16 17 18 19 20 21 22 23 24 25 26 27 28 29 30 31 32 33 34 35 36 37 38 39 40 41 42 43 44 45 46 47 48 49 50

000
ASUS43 KBIS 280102
RWRND

NORTH DAKOTA REGIONAL WEATHER ROUNDUP
NATIONAL WEATHER SERVICE BISMARCK ND
800 PM CDT WED MAY 27 2015

NOTE: "FAIR" INDICATES FEW OR NO CLOUDS BELOW 12,000 FEET WITH NO
SIGNIFICANT WEATHER AND/OR OBSTRUCTIONS TO VISIBILITY.


NDZ001>003-009>011-017-280200-
NORTHWEST NORTH DAKOTA

CITY           SKY/WX    TMP DP  RH WIND       PRES   REMARKS
WILLISTON      CLOUDY    65  53  65 SE8       29.90F
MINOT          LGT RAIN  64  53  67 E17       29.92R
MINOT AFB      CLOUDY    72  51  47 SE15      29.90R
$$

NDZ018>021-031>035-040>046-280200-
SOUTHWEST NORTH DAKOTA

CITY           SKY/WX    TMP DP  RH WIND       PRES   REMARKS
BISMARCK       CLOUDY    75  51  43 SW9       29.90S
DICKINSON      CLOUDY    59  55  87 E13       29.90F
GARRISON         N/A     67  51  56 W20       29.93R
HETTINGER ARPT RAIN      56  54  93 E12       29.95F
$$

NDZ004>008-012>016-024-026-027-054-280200-
NORTHEAST NORTH DAKOTA

CITY           SKY/WX    TMP DP  RH WIND       PRES   REMARKS
GRAND FORKS    PTSUNNY   69  54  58 N7        29.95S
GRND FRKS AFB  PTSUNNY   70  52  53 NE8       29.96F
DEVILS LAKE    CLOUDY    70  52  52 SE12      29.97R
$$

NDZ022-023-025-028>030-036>039-047>053-280200-
SOUTHEAST NORTH DAKOTA

CITY           SKY/WX    TMP DP  RH WIND       PRES   REMARKS
FARGO          MOCLDY    75  56  51 NE6       29.94S
JAMESTOWN      PTSUNNY   71  52  50 E15       29.94R
$$



USA.gov is the U.S. government's official web portal to all federal, state and local government web resources and services.